SCP
0 0 0 0 0 0 0 0 0 0 0 0 0 0 0 0 0 0 0 0 0 0 0 0 1 1 1 1 1 1 1 1 1 1 1 1 0 0 0 0 0 0 0 0
0 0 0 0 0 0 0 0 0 0 0 0 0 0 0 0 0 0 0 0 0 0 0 0 1 1 1 1 1 1 1 1 1 1 1 1 0 0 0 0 0 0 0 0
0 0 0 0 0 0 0 0 0 0 0 0 0 0 0 0 0 0 0 0 0 0 0 0 0 1 1 1 1 1 1 1 1 1 1 1 1 0 0 0 0 0 0 0
0 0 0 0 0 0 0 0 0 0 0 0 0 0 0 0 0 0 0 0 0 0 0 0 0 0 1 1 1 1 1 1 1 1 1 1 1 0 0 0 0 0 0 0
0 0 0 0 0 0 0 0 0 0 0 0 0 0 0 0 0 0 0 0 0 0 0 0 0 0 1 1 1 1 1 1 1 1 1 1 1 0 0 0 0 0 0 0
0 0 0 0 0 0 0 0 0 0 0 0 0 0 0 0 0 0 0 0 0 0 0 0 0 0 0 1 1 1 1 1 1 1 1 1 1 0 0 0 0 0 0 0
0 0 0 0 0 0 0 0 0 0 0 0 0 0 0 0 0 0 0 0 0 0 0 0 0 0 0 0 1 1 1 1 1 1 1 1 1 1 0 0 0 0 0 0
0 0 0 0 0 0 0 0 0 0 0 0 0 0 0 0 0 0 0 0 0 0 0 0 0 0 0 0 0 1 1 1 1 1 1 1 1 1 0 0 0 0 0 0
0 0 0 0 0 0 0 0 0 0 0 0 0 0 0 0 0 0 0 0 0 0 0 0 0 0 0 0 0 1 1 1 1 1 1 1 1 0 0 0 0 0 0 0
0 0 0 0 0 0 0 0 0 0 0 0 0 0 0 0 0 0 0 0 0 0 0 0 0 0 1 1 1 1 1 1 1 1 1 1 1 0 0 0 0 0 0 0
0 0 0 0 0 0 0 0 0 0 0 0 0 0 0 0 0 0 0 0 0 0 0 0 0 0 0 1 1 1 1 1 1 1 1 1 1 0 0 0 0 0 0 0
0 0 0 0 0 0 0 0 0 0 0 0 0 0 0 0 0 0 0 0 0 0 0 0 0 0 0 0 1 1 1 1 1 1 1 1 1 1 0 0 0 0 0 0
0 0 0 0 0 0 0 0 0 0 0 0 0 0 0 0 0 0 0 0 0 0 0 0 0 0 0 0 1 1 1 1 1 1 1 1 1 1 1 1 1 1 0 0
0 0 0 0 0 0 0 0 0 0 0 0 0 0 0 0 0 0 0 0 0 0 0 0 0 0 0 0 1 1 1 1 0 0 0 1 1 1 1 1 1 1 0 0
0 0 0 0 0 0 0 0 0 0 0 0 0 0 0 0 0 0 0 0 0 0 0 0 0 0 0 0 0 0 0 0 0 0 0 0 0 0 0 1 1 0 0 0
0 0 0 0 0 0 0 0 0 0 0 0 0 0 0 0 0 0 0 0 0 0 0 0 0 0 0 0 0 0 0 0 0 0 0 0 0 0 0 0 0 0 0 0
0 0 0 0 0 0 0 0 0 0 0 0 0 0 0 0 0 0 0 0 0 0 0 0 0 0 0 0 0 0 0 0 0 0 0 0 0 0 0 0 0 0 0 0
0 0 0 0 0 0 0 0 0 0 0 0 0 0 0 0 0 0 0 0 0 0 0 0 0 0 0 0 0 0 0 0 0 0 0 0 0 0 0 0 0 0 0 0
0 0 0 0 0 0 0 0 0 0 0 0 0 0 0 0 0 0 0 0 0 0 0 0 0 0 0 0 0 0 0 0 0 0 0 0 0 0 0 0 0 0 0 0
0 0 0 0 0 0 0 0 0 0 0 0 0 0 0 0 0 0 0 0 0 0 0 0 0 0 0 0 0 0 0 0 0 0 0 0 0 0 0 0 0 0 0 0
0 0 0 0 0 0 0 0 0 0 0 0 0 0 0 0 0 0 0 0 0 0 0 0 0 0 0 0 0 0 0 0 0 0 0 0 0 0 0 0 0 0 0 0
0 0 0 0 0 0 0 0 0 0 0 0 0 0 0 0 0 0 0 0 0 0 0 0 0 0 0 0 0 0 0 0 0 0 0 0 0 0 0 0 0 0 0 0
0 0 0 0 0 0 0 0 0 0 0 0 0 0 0 0 0 0 0 0 0 0 0 0 0 0 0 0 0 0 0 0 0 0 0 0 0 0 0 0 0 0 0 0
0 0 0 0 0 0 0 0 0 0 0 0 0 0 0 0 0 0 0 0 0 0 0 0 0 0 0 0 0 0 0 0 0 0 0 0 0 0 0 0 0 0 0 0
0 0 0 0 0 0 0 0 0 0 0 0 0 0 0 0 0 0 0 0 0 0 0 0 0 0 0 0 0 0 0 0 0 0 0 0 0 0 0 0 0 0 0 0
0 0 0 0 0 0 0 0 0 0 0 0 0 0 0 0 0 0 0 0 0 0 0 0 0 0 0 0 0 0 0 0 0 0 0 0 0 0 0 0 0 0 0 0
Wind_Speed
9 10 11 9 9 7 6 8 7 5 3 5 6 6 4 4 5 6 6 6 7 6 6 7 7 7 8 8 8 7 7 6 4 3 3 3 2 2 2 1 1 1 1 2
9 11 8 5 6 8 9 9 8 5 3 5 5 6 5 4 5 5 5 6 6 6 7 7 8 9 9 9 8 8 7 7 5 4 3 2 1 2 2 1 2 1 1 2
12 4 6 8 9 10 10 10 8 5 4 7 7 8 6 4 4 5 6 6 6 7 8 8 9 9 9 9 9 7 7 7 5 5 4 3 2 2 2 1 2 1 2 2
9 6 8 10 10 11 10 8 7 8 9 7 7 7 4 4 4 5 5 6 7 7 8 8 9 10 9 9 8 8 8 7 5 5 4 4 2 1 1 1 1 1 2 2
8 8 10 11 9 9 7 5 8 10 11 10 9 10 4 5 5 4 4 4 5 6 7 8 8 8 8 8 7 7 7 7 6 5 4 3 2 1 1 1 1 2 2 2
7 7 7 7 6 7 6 7 8 9 10 12 10 10 6 3 4 3 3 3 4 5 5 6 7 7 7 7 7 7 7 6 6 6 5 4 3 2 1 2 1 2 2 2
10 11 9 7 8 9 11 10 8 9 10 8 5 7 4 1 2 3 2 3 4 4 5 6 7 7 6 7 7 7 7 7 6 6 5 4 4 4 3 3 2 2 2 2
10 10 10 9 10 8 11 13 9 7 7 5 6 7 2 1 1 1 2 3 4 5 5 6 6 6 6 6 6 7 7 7 6 6 5 4 4 3 3 3 2 2 2 2
6 6 7 7 8 9 10 11 9 9 9 8 6 4 4 4 3 2 3 4 4 5 5 5 5 5 5 5 5 6 7 6 6 6 5 5 4 3 2 3 3 2 2 2
5 5 6 6 8 8 9 8 7 9 8 9 8 9 5 5 3 3 3 3 3 4 5 5 5 4 4 4 4 4 5 6 6 6 5 4 4 4 3 3 3 2 2 2
7 7 7 8 10 10 9 10 9 8 8 8 7 3 3 3 2 1 2 2 3 3 4 4 4 3 4 4 4 4 3 4 5 5 4 4 4 4 4 3 3 3 2 2
5 6 7 9 7 8 11 11 11 9 8 9 8 1 5 3 2 1 1 1 1 2 2 3 3 3 3 3 3 3 2 3 3 4 5 5 4 4 4 3 3 3 3 3
4 5 7 9 9 9 10 11 11 11 9 9 10 2 6 3 2 1 1 1 2 2 2 2 2 2 2 2 2 2 2 2 2 3 4 4 4 4 4 3 3 3 3 3
5 6 8 9 5 6 9 10 11 12 10 10 10 5 1 1 1 1 0 1 1 2 1 1 1 1 2 2 2 2 2 2 2 2 3 4 4 4 3 3 3 3 3 3
5 7 8 8 7 7 8 9 11 12 11 11 8 5 3 2 2 2 1 1 2 2 1 1 1 1 2 2 2 2 2 2 2 2 2 2 3 3 3 3 3 3 3 3
3 5 6 7 7 8 7 7 9 10 10 10 8 5 2 2 1 1 1 1 1 1 1 1 1 1 2 2 2 2 2 2 3 3 2 2 2 3 3 3 3 3 2 2
4 5 7 7 7 8 9 7 8 8 7 8 7 3 1 2 2 2 1 2 2 1 1 1 1 1 1 2 2 3 3 3 3 3 3 2 2 2 2 3 3 3 2 2
6 7 6 6 7 10 1 1 3 6 4 3 3 2 2 2 2 1 1 1 1 1 1 1 2 2 2 2 2 2 3 3 3 3 3 2 2 2 2 3 3 3 2 2
6 7 6 6 8 6 3 2 4 5 4 1 3 3 3 2 1 2 1 2 2 2 2 2 2 2 2 2 2 2 3 3 4 4 3 3 2 2 3 3 3 3 3 2
5 6 7 7 8 6 0 1 3 5 5 1 3 3 2 3 4 0 1 2 2 1 2 2 2 3 2 2 2 3 3 4 4 3 3 3 3 3 3 3 3 3 3 3
5 6 8 8 7 2 2 1 2 5 2 0 2 3 3 4 4 2 1 1 1 1 2 2 2 2 2 2 3 3 3 3 3 3 3 3 3 3 3 3 3 3 3 3
4 4 5 6 6 3 2 2 2 2 3 2 2 3 3 3 1 1 1 1 1 1 2 2 2 2 2 3 3 4 3 3 3 3 3 2 3 3 3 3 4 4 5 5
3 3 2 2 2 2 0 0 1 2 3 3 3 2 2 2 1 1 1 1 1 1 1 2 2 2 2 3 4 3 2 2 2 2 2 2 3 2 3 4 4 5 5 5
2 2 3 3 2 1 1 1 2 3 3 3 3 3 2 2 1 1 1 1 1 1 1 2 2 3 2 2 3 3 3 3 2 2 2 2 2 2 3 3 3 3 3 4
3 2 4 4 3 2 2 3 4 4 4 3 3 3 3 2 1 1 1 1 1 1 2 2 3 3 3 2 3 3 2 2 2 2 2 2 2 2 3 2 1 3 2 2
3 4 5 4 3 5 5 5 5 4 4 3 2 2 2 1 1 1 1 0 0 1 1 2 2 2 2 2 2 2 2 3 3 2 2 2 3 3 3 3 2 1 1 2
Wind_Direction
192 215 217 214 226 253 245 241 233 227 208 240 244 256 260 248 230 225 218 208 200 196 190 181 178 177 170 168 168 167 169 162 167 164 177 178 178 188 178 173 156 195 213 202
197 220 222 213 215 227 228 233 226 206 190 246 255 262 259 250 236 232 226 216 209 199 186 181 178 177 173 170 169 171 173 167 172 160 171 177 183 194 181 167 150 197 211 219
220 201 184 202 206 217 225 235 234 226 220 227 245 247 232 213 217 224 227 221 214 208 194 183 182 182 176 173 172 171 170 167 171 164 159 154 162 179 168 186 173 200 224 218
225 204 199 210 215 224 229 225 238 237 242 237 237 259 226 218 217 225 226 217 212 207 198 185 181 179 179 177 173 170 167 165 164 165 159 162 162 159 159 260 196 199 208 224
208 201 208 219 224 229 238 226 234 242 249 255 238 254 232 206 233 226 214 215 206 200 195 185 181 175 174 173 172 167 166 165 164 166 163 172 161 156 168 222 224 234 203 216
226 210 228 233 223 220 212 214 225 236 241 245 241 252 249 219 241 226 192 187 187 186 184 176 171 167 170 169 169 165 161 163 166 170 168 172 165 170 181 219 236 230 210 216
214 210 208 219 210 196 210 216 220 219 220 234 214 244 253 257 250 237 204 182 174 178 177 173 165 164 165 168 169 167 167 167 168 168 171 175 180 188 200 225 223 248 233 225
219 209 197 206 225 219 215 229 242 251 245 236 197 233 215 153 218 209 177 172 162 173 179 174 164 165 163 165 167 171 173 172 174 175 178 183 194 208 200 212 245 235 252 242
225 203 170 197 221 234 218 227 250 265 264 256 227 220 208 200 195 181 158 161 164 169 176 167 161 165 160 161 165 174 176 177 180 183 185 190 196 217 217 214 228 235 247 244
244 227 195 196 211 218 243 231 226 241 248 250 232 229 222 187 192 170 153 161 159 168 164 160 161 162 159 157 160 172 175 183 185 190 196 191 199 209 214 222 221 245 251 255
234 232 205 199 216 211 207 216 230 240 255 262 252 219 91 164 189 198 155 146 154 163 163 162 158 157 159 156 156 162 171 182 191 195 195 201 205 208 213 217 220 231 242 240
229 244 231 219 219 233 227 227 224 236 237 249 266 223 95 114 124 115 91 102 136 156 158 155 152 160 168 165 161 164 174 183 195 197 197 202 208 210 215 215 221 226 230 235
212 227 229 213 202 205 219 223 229 239 248 248 253 209 108 119 133 125 116 125 136 143 146 138 149 164 169 170 167 170 179 185 198 197 199 200 209 211 215 221 226 226 226 234
256 240 250 256 257 214 216 222 225 233 241 246 250 258 200 221 238 232 156 115 121 123 125 132 174 182 170 173 178 187 182 176 185 193 202 204 207 211 214 216 219 220 223 227
253 246 253 267 269 252 240 233 227 232 249 262 266 267 279 281 267 255 235 135 128 130 158 193 224 205 191 183 192 197 191 185 192 196 198 210 210 211 214 215 214 215 219 219
246 256 250 251 244 232 235 240 235 238 249 259 268 275 340 295 256 233 235 195 167 176 229 254 268 235 204 200 207 199 199 200 204 212 209 210 212 211 210 209 208 209 210 215
234 240 247 243 229 233 231 234 235 232 239 253 260 283 358 271 248 242 234 226 215 221 243 248 278 276 233 215 210 208 203 201 204 210 206 198 210 214 218 210 202 205 203 203
244 244 248 248 227 234 164 69 245 227 226 274 299 323 299 292 255 208 164 241 251 246 244 248 258 256 243 225 209 207 202 196 197 202 201 204 217 219 214 212 207 207 206 209
232 236 247 244 235 226 176 188 244 235 227 295 290 299 308 321 226 194 26 307 266 246 239 247 250 240 227 223 209 199 203 204 203 202 200 201 209 217 217 211 208 208 207 207
204 228 244 242 247 244 128 19 280 245 223 204 279 276 275 264 253 247 3 303 280 239 226 231 229 213 203 204 207 210 211 211 214 210 206 209 210 211 217 214 211 206 206 201
205 216 234 245 247 243 9 7 203 229 290 53 269 265 252 264 311 355 322 301 281 242 207 211 222 209 198 205 212 221 225 225 226 220 217 209 204 208 208 207 205 202 198 188
234 234 227 244 242 237 62 158 219 333 352 296 286 273 262 281 321 315 316 330 265 223 203 211 214 211 206 217 228 229 228 233 233 220 217 204 200 206 186 193 198 198 195 188
249 293 277 258 266 26 56 301 2 321 297 294 292 283 273 267 266 287 289 282 256 234 230 229 218 220 227 232 247 235 229 229 224 211 212 200 193 200 195 198 200 200 202 202
207 291 258 238 222 267 319 313 311 302 297 292 285 278 267 263 243 242 264 277 281 283 259 245 232 227 233 240 238 238 226 220 210 211 212 194 184 189 185 209 203 203 204 207
306 261 253 248 274 297 306 316 313 310 308 301 291 273 269 259 233 234 255 275 302 304 275 253 248 245 242 232 220 228 222 210 210 213 214 199 185 183 186 195 222 224 209 226
282 275 272 280 305 293 309 322 314 307 304 288 270 269 282 271 237 232 243 251 293 286 282 271 263 260 255 238 223 223 219 210 212 208 207 202 194 188 193 184 182 116 215 133